[[{"header":{"parameterUnit":"m.s-1","parameterCategory":1,"la1":30.2991,"la2":30.254,"lo1":-89.0895,"lo2":-89.0444,"dy":0.0017,"dx":0.0017,"nx":28,"ny":28,"refTime":"2023-08-06T03:00:00:Z","depth":0,"parameterNumber":2,"parameterNumberName":"U-component_of_WINDS"},"data":[0,0,0,0,0,0,0,0,0,0,0,0,0,0,0,0,0,0,0,0,0,0,0,0,0,0,0,0,0,0,0,0,0,0,0,0,0,0,0,0,0,0,0,0,0,0,0,0,0,0,0,0,0,0,0,0,0,0,2.2928,2.2926,0,2.2821,2.282,2.2819,2.2679,2.2677,2.2674,2.2672,2.2568,2.2567,2.2567,0,0,0,0,0,0,0,0,0,0,0,0,0,2.301,2.3009,2.2928,2.2926,2.2925,2.2822,2.282,2.2819,2.268,2.2677,2.2674,2.2671,2.2568,2.2567,2.2567,0,0,0,0,0,0,0,0,0,0,0,0,0,2.2946,2.3009,2.2928,2.2843,2.2834,2.2822,2.282,2.2818,2.268,2.2677,2.2673,2.267,2.2568,2.2567,2.2566,2.263,0,0,2.2564,2.2563,0,0,0,0,0,0,0,0,2.295,2.2943,2.2857,2.2849,2.2839,2.276,2.2811,2.2755,2.2681,2.2739,2.2672,2.2668,2.2635,2.2628,2.2616,2.2625,2.2621,2.2563,2.2563,2.2563,2.2562,0,0,0,0,0,0,0,2.2955,2.2947,2.2886,2.2856,2.2845,2.281,2.2797,2.28,2.2708,2.2734,2.2723,2.2712,2.2629,2.2617,2.2613,2.2619,2.2564,2.2563,2.2562,2.2562,2.267,2.2673,0,0,0,0,0,0,2.2971,2.2952,2.2889,2.2882,2.2887,2.2812,2.2797,2.2789,2.2707,2.2691,2.2715,2.2706,2.2621,2.2614,2.2608,2.2674,2.2563,2.2562,2.2561,2.2667,2.2671,2.2675,0,0,0,0,0,0,2.2974,2.2967,2.2893,2.2914,2.2902,2.2814,2.2806,2.2789,2.2776,2.2693,2.2677,2.272,2.2618,2.261,2.2624,2.2668,2.2561,2.256,2.2663,2.2668,2.2673,2.2808,0,0,0,0,0,0,2.2977,2.2969,2.2993,2.2916,2.2902,2.2912,2.2808,2.2789,2.2775,2.2762,2.2693,2.2679,2.2614,2.2626,2.2623,2.2665,2.256,2.2658,2.2665,2.2671,2.28,2.2817,2.2833,0,0,0,0,0,2.298,2.3037,2.2994,2.2988,2.2929,2.2914,2.2906,2.283,2.2779,2.2801,2.2747,2.2681,2.2664,2.2629,2.2624,2.2667,2.2655,2.2663,2.2671,2.2792,2.2814,2.2832,0,0,0,0,0,0,2.3124,2.3025,2.2977,2.3011,2.2972,2.2891,2.2917,2.2856,2.2832,2.2821,2.2728,2.2714,2.2739,2.2705,2.2667,2.2722,2.2649,2.2657,2.2743,2.2764,2.278,2.2787,2.2559,0,0,0,0,0,2.3159,2.3154,2.3069,2.3107,2.3089,2.3007,2.2998,2.2942,2.2898,2.2881,2.2829,2.279,2.2774,2.2767,2.275,2.2794,2.2775,2.282,2.2837,2.2851,2.2858,2.2875,2.2893,2.27,2.27,2.27,0,0,2.3232,2.3178,2.3181,2.3134,2.3097,2.3094,2.2994,2.2997,2.2993,2.2882,2.2891,2.2851,2.2801,2.283,2.284,2.2801,2.2907,2.2861,2.2873,2.2872,2.2885,2.2903,2.2919,2.2705,2.2704,2.2703,0,0,2.3364,2.3323,2.3348,2.3312,2.3256,2.32,2.3206,2.3133,2.3102,2.3109,2.3024,2.3019,2.2997,2.2963,2.2944,2.3058,2.2995,2.3055,2.3142,2.3159,2.3174,2.3187,2.3225,2.324,2.3062,2.3063,2.3063,0,2.3462,2.3454,2.3369,2.3375,2.3355,2.3252,2.3275,2.3245,2.3188,2.3176,2.3134,2.31,2.306,2.3077,2.3104,2.3093,2.3095,2.3062,2.3179,2.3191,2.3202,2.3237,2.3252,2.307,2.3069,2.3068,2.3068,0,2.3576,2.3571,2.3598,2.3541,2.3525,2.354,2.3457,2.3451,2.3395,2.3344,2.3351,2.3298,2.3265,2.3265,2.3213,2.3274,2.3251,2.3196,2.3121,2.3229,2.326,2.3273,2.3081,2.3078,2.3076,2.3074,0,0,2.3797,2.369,2.3701,2.3672,2.3601,2.3596,2.3605,2.3571,2.3566,2.3529,2.3533,2.3515,2.3461,2.3438,2.3381,2.3396,2.3486,2.3337,2.3334,2.3365,2.3546,2.3587,2.3605,2.3443,2.3446,2.3447,2.3549,0,2.3913,2.3922,2.3844,2.3873,2.3866,2.3766,2.3773,2.373,2.3682,2.3668,2.3614,2.3601,2.3533,2.3518,2.3529,2.3473,2.3521,2.3464,2.3445,2.3446,2.3459,2.3621,2.3666,2.3765,2.3561,2.3563,2.3565,0,2.4051,2.4017,2.4046,2.3969,2.3963,2.3971,2.3931,2.3921,2.3869,2.3832,2.3805,2.3737,2.374,2.3669,2.367,2.3633,2.3621,2.3592,2.3594,2.3588,2.3511,2.3618,2.3795,2.3809,2.3584,2.3582,2.3581,0,2.4205,2.4168,2.4179,2.4158,2.407,2.4077,2.4041,2.3985,2.3969,2.3934,2.3922,2.389,2.3872,2.3848,2.3773,2.3729,2.3782,2.3706,2.375,2.3752,2.3765,2.3765,2.3941,2.3761,2.376,2.376,2.376,0,2.4343,2.4363,2.4246,2.4253,2.4272,2.4182,2.4203,2.4157,2.4108,2.4103,2.4016,2.4013,2.3915,2.3901,2.3843,2.3851,2.3844,2.3813,2.3797,2.382,2.3824,2.381,2.3801,2.3764,2.3763,2.3762,2.3762,0,2.4519,2.4442,2.4446,2.4361,2.434,2.4357,2.4284,2.4286,2.423,2.4225,2.4219,2.4132,2.411,2.4033,2.3994,2.3954,2.398,2.395,2.3997,2.3986,2.4034,2.403,2.4205,2.4222,2.4034,2.4036,2.4038,0,2.4611,2.4623,2.4538,2.4527,2.4494,2.4479,2.446,2.4371,2.4355,2.4295,2.4304,2.4275,2.4247,2.4217,2.4151,2.4119,2.4087,2.415,2.4082,2.4103,2.4085,2.4084,2.4084,2.4165,2.4168,2.417,2.4172,0,2.4781,2.4741,2.4717,2.4678,2.4658,2.4624,2.4585,2.4581,2.4482,2.4468,2.4444,2.4422,2.4379,2.4351,2.4308,2.427,2.4204,2.4193,2.4201,2.4224,2.425,2.4234,2.4035,2.419,2.4188,2.4187,2.4186,2.4185,2.4916,2.4921,2.486,2.4835,2.4796,2.476,2.4756,2.4699,2.4676,2.4633,2.4582,2.4564,2.4508,2.4442,2.4409,2.4393,2.4357,2.437,2.4372,2.4376,2.4386,2.4253,2.4385,2.4384,2.4384,2.4383,2.4383,0,2.5079,2.5034,2.5012,2.4958,2.4938,2.4875,2.4828,2.4815,2.4799,2.4752,2.4725,2.4695,2.4666,2.4596,2.456,2.456,2.4529,2.4554,2.4552,2.4544,2.4422,2.4417,2.4579,2.4579,2.4579,2.4579,2.4579,2.4579,2.5162,2.5166,2.5118,2.5101,2.5055,2.5035,2.5013,2.4979,2.494,2.491,2.4885,2.4838,2.4781,2.4739,2.4709,2.4689,2.4679,2.4714,2.4684,2.4572,2.4553,2.4535,2.453,2.4713,2.4713,2.4806,2.4807,2.4808]},{"header":{"parameterUnit":"m.s-1","parameterCategory":1,"la1":30.2991,"la2":30.254,"lo1":-89.0895,"lo2":-89.0444,"dy":0.0017,"dx":0.0017,"nx":28,"ny":28,"refTime":"2023-08-06T03:00:00:Z","depth":0,"parameterNumber":3,"parameterNumberName":"V-component_of_WINDS"},"data":[0,0,0,0,0,0,0,0,0,0,0,0,0,0,0,0,0,0,0,0,0,0,0,0,0,0,0,0,0,0,0,0,0,0,0,0,0,0,0,0,0,0,0,0,0,0,0,0,0,0,0,0,0,0,0,0,0,0,5.4537,5.4539,0,5.466,5.4661,5.4662,5.4648,5.4646,5.4644,5.4642,5.476,5.4764,5.4769,0,0,0,0,0,0,0,0,0,0,0,0,0,5.4284,5.4288,5.4537,5.4539,5.454,5.4659,5.4661,5.4663,5.4648,5.4645,5.4643,5.4641,5.4758,5.4764,5.477,0,0,0,0,0,0,0,0,0,0,0,0,0,5.4398,5.429,5.4537,5.4547,5.455,5.4659,5.4661,5.4663,5.4648,5.4645,5.4642,5.464,5.4756,5.4763,5.4771,5.4875,0,0,5.4793,5.4796,0,0,0,0,0,0,0,0,5.4392,5.4408,5.4544,5.4547,5.455,5.4635,5.4615,5.4734,5.4649,5.4611,5.4642,5.4638,5.472,5.473,5.4759,5.4881,5.4886,5.4794,5.4798,5.4802,5.4804,0,0,0,0,0,0,0,5.4384,5.4402,5.4585,5.4546,5.455,5.4544,5.4557,5.4637,5.468,5.4614,5.4613,5.4628,5.4721,5.4752,5.4762,5.4887,5.4794,5.48,5.4805,5.4808,5.5098,5.5101,0,0,0,0,0,0,5.4374,5.4396,5.4581,5.4589,5.4462,5.4551,5.4565,5.4611,5.4679,5.4687,5.463,5.4627,5.4741,5.4753,5.4766,5.4891,5.4802,5.4809,5.4813,5.5095,5.5099,5.5102,0,0,0,0,0,0,5.4369,5.4391,5.4576,5.4492,5.4516,5.4558,5.4609,5.4615,5.4646,5.4692,5.4699,5.4655,5.4739,5.4756,5.4848,5.4895,5.4812,5.4819,5.5091,5.5096,5.5101,5.5144,0,0,0,0,0,0,5.4362,5.4389,5.4431,5.4494,5.452,5.4659,5.4612,5.4619,5.466,5.4656,5.4717,5.4724,5.4738,5.4837,5.4856,5.4904,5.4824,5.5087,5.5093,5.5099,5.5138,5.5149,5.5159,0,0,0,0,0,5.4353,5.4437,5.4433,5.4456,5.4574,5.4662,5.4676,5.4693,5.4664,5.4705,5.4734,5.4722,5.4888,5.4847,5.4867,5.4919,5.5084,5.5092,5.5099,5.5133,5.5147,5.5159,0,0,0,0,0,0,5.4377,5.4445,5.4442,5.455,5.46,5.4659,5.4711,5.4708,5.4766,5.476,5.4776,5.4789,5.4882,5.491,5.4863,5.5023,5.4981,5.4993,5.5001,5.5014,5.5025,5.5015,5.4831,0,0,0,0,0,5.4395,5.4463,5.4519,5.4608,5.4634,5.4668,5.4707,5.4716,5.4768,5.4788,5.4825,5.4873,5.4936,5.4977,5.5038,5.5143,5.5154,5.5188,5.5199,5.5207,5.5216,5.5272,5.5287,5.5126,5.5126,5.5126,0,0,5.4432,5.4478,5.452,5.4614,5.4654,5.4721,5.4686,5.4759,5.4809,5.4799,5.4888,5.4917,5.4972,5.5071,5.5116,5.5097,5.5263,5.5216,5.5223,5.5227,5.5281,5.5296,5.5309,5.5131,5.513,5.513,0,0,5.4534,5.4577,5.4656,5.4697,5.476,5.4782,5.4801,5.4861,5.488,5.4971,5.4965,5.5022,5.5131,5.517,5.5205,5.5322,5.5312,5.5342,5.5395,5.5449,5.5462,5.5473,5.5513,5.5527,5.5351,5.5351,5.5351,0,5.4572,5.4676,5.4696,5.477,5.4811,5.4808,5.4886,5.4924,5.5002,5.5029,5.5007,5.5143,5.518,5.5287,5.5316,5.5344,5.5364,5.5333,5.5459,5.547,5.5481,5.5519,5.5534,5.5354,5.5354,5.5353,5.5353,0,5.4718,5.479,5.4846,5.4923,5.497,5.5046,5.5075,5.512,5.5125,5.5149,5.524,5.5285,5.5354,5.5381,5.5385,5.5488,5.5474,5.5456,5.5414,5.5499,5.5535,5.555,5.5358,5.5357,5.5356,5.5356,0,0,5.4837,5.4926,5.4945,5.498,5.5049,5.5103,5.5178,5.5248,5.5285,5.5339,5.54,5.5493,5.5476,5.5515,5.5524,5.5572,5.5659,5.5547,5.5548,5.5564,5.5773,5.5785,5.5802,5.5655,5.5657,5.566,5.5767,0,5.4944,5.5079,5.5099,5.5216,5.5282,5.528,5.5345,5.5392,5.5417,5.5474,5.5501,5.5565,5.554,5.5563,5.561,5.5639,5.5701,5.5632,5.5708,5.5711,5.5692,5.5821,5.5834,5.5933,5.5782,5.5784,5.5786,0,5.5086,5.5146,5.5271,5.533,5.5359,5.5417,5.5482,5.5538,5.5591,5.5605,5.565,5.5653,5.5728,5.5685,5.5787,5.5739,5.5772,5.5791,5.5795,5.5801,5.5752,5.5827,5.5965,5.5979,5.5809,5.5807,5.5805,0,5.5157,5.5269,5.5358,5.5388,5.546,5.5501,5.5532,5.5583,5.5624,5.568,5.5706,5.577,5.5804,5.5852,5.5871,5.5839,5.5971,5.5931,5.5982,5.5982,5.6008,5.6006,5.6151,5.6034,5.6034,5.6033,5.6033,0,5.5273,5.5349,5.5391,5.5445,5.5529,5.5551,5.5633,5.5663,5.5708,5.5766,5.5769,5.5822,5.5846,5.5903,5.5919,5.6,5.6016,5.6027,5.603,5.6026,5.6024,5.6045,5.6038,5.6037,5.6036,5.6036,5.6035,0,5.5366,5.5397,5.5494,5.5555,5.5572,5.5631,5.5682,5.5733,5.5758,5.5832,5.585,5.5888,5.5955,5.5981,5.6062,5.6072,5.6165,5.6163,5.6147,5.6148,5.6197,5.6191,5.6359,5.6381,5.6252,5.6253,5.6254,0,5.5436,5.5495,5.5563,5.5603,5.5637,5.5701,5.5743,5.5767,5.581,5.5875,5.5918,5.5986,5.6041,5.6148,5.6182,5.6244,5.6242,5.6296,5.6251,5.6244,5.6239,5.6235,5.624,5.6304,5.6305,5.6306,5.6307,0,5.5557,5.557,5.5632,5.5699,5.575,5.5803,5.5855,5.5887,5.5918,5.5966,5.6036,5.6079,5.6164,5.623,5.6294,5.6323,5.6319,5.6322,5.6337,5.6331,5.6319,5.6324,5.6168,5.6317,5.6316,5.6315,5.6315,5.6314,5.5639,5.5691,5.5747,5.5815,5.5857,5.5905,5.5957,5.5989,5.6049,5.612,5.613,5.6205,5.6256,5.6342,5.6374,5.6431,5.6416,5.6438,5.6443,5.6448,5.645,5.6313,5.6443,5.6443,5.6442,5.6442,5.6442,0,5.5758,5.5795,5.5858,5.5931,5.5984,5.598,5.6037,5.6081,5.6147,5.6196,5.6251,5.6331,5.6395,5.6435,5.6499,5.6537,5.6536,5.6552,5.6548,5.6555,5.6461,5.6441,5.6551,5.6551,5.6551,5.6551,5.6551,5.6551,5.5826,5.5912,5.5932,5.6039,5.6074,5.6149,5.6182,5.6225,5.6265,5.6354,5.6409,5.6435,5.648,5.6547,5.6605,5.6615,5.6637,5.6654,5.6662,5.6573,5.6561,5.6551,5.6532,5.6659,5.666,5.6751,5.6752,5.6752]}]]